Home > Weather > Hereford > Past weeks

Flag for U.S.A. Weather for the Past 2 Weeks in Hereford, Texas, U.S.A.

Now
66 °F

Sunny.


Feels Like: 66 °F
Forecast: 32 / 64 °F
Wind: 13 mph from Southeast

Location: Clovis Municipal

Current Time: Feb 12, 2016 at 3:29:16 PM

Latest Report: Feb 12, 2016 at 2:55 PM


Visibility: 10 mi

Pressure: 30.28 "Hg (26.42 "Hg at 1167m altitude)

Humidity: 22%

Dew point: 27 °F

Location of HerefordLocation

Historic Weather in Hereford — Graph

°F

Hereford Temperature Yesterday

Maximum temperature yesterday: 66 °F (at 3:15 PM)
Minimum temperature yesterday: 34 °F (at 2:55 AM)
Average temperature yesterday: 49 °F

High & Low Weather Summary for the Past Weeks

 TemperatureHumidityPressure
High73 °F (Jan 30, 1:55 PM)93% (Feb 1, 7:15 AM)30.50 "Hg (Feb 1, 7:15 AM)
Low12 °F (Feb 4, 5:55 AM)11% (Feb 10, 5:15 PM)29.49 "Hg (Feb 1, 12:55 PM)
Average40 °F46%30.11 "Hg
* Reported Jan 28 2:15 PM — Feb 12 2:15 PM, Hereford, Weather by CustomWeather, © 2016

Note: Actual official high and low records may vary slightly from our data, if they occured in-between our weather recording intervals... More about our weather records

Advertising

Hereford Weather History for the Previous 24 Hours

 ConditionsComfort  
Time TempWeatherWind HumidityBarometerVisibility
2:15 PM
Fri, Feb 12
66 °FSunny.14 mph22%30.29 "Hg10 mi
1:55 PM66 °FSunny.15 mph22%30.30 "Hg10 mi
1:35 PM64 °FSunny.16 mph24%30.32 "Hg10 mi
1:15 PM64 °FSunny.13 mph24%30.33 "Hg10 mi
12:55 PM64 °FSunny.15 mph26%30.34 "Hg10 mi
12:35 PM63 °FSunny.13 mph27%30.35 "Hg10 mi
12:15 PM61 °FSunny.14 mph29%30.36 "Hg10 mi
11:55 AM61 °FSunny.16 mph29%30.36 "Hg10 mi
11:35 AM57 °FSunny.16 mph33%30.36 "Hg10 mi
11:15 AM55 °FSunny.15 mph36%30.36 "Hg10 mi
10:55 AM55 °FSunny.17 mph33%30.35 "Hg10 mi
10:35 AM52 °FSunny.13 mph38%30.34 "Hg10 mi
10:15 AM50 °FSunny.16 mph40%30.34 "Hg10 mi
9:55 AM48 °FSunny.16 mph40%30.33 "Hg10 mi
9:35 AM46 °FSunny.18 mph46%30.33 "Hg10 mi
9:15 AM43 °FSunny.20 mph53%30.32 "Hg10 mi
8:55 AM39 °FSunny.16 mph56%30.32 "Hg10 mi
8:35 AM37 °FSunny.17 mph60%30.31 "Hg10 mi
8:15 AM36 °FSunny.15 mph60%30.30 "Hg10 mi
7:55 AM34 °FSunny.16 mph60%30.29 "Hg10 mi
7:35 AM34 °FClear.15 mph60%30.29 "Hg10 mi
6:55 AM34 °FClear.15 mph60%30.28 "Hg10 mi
6:35 AM34 °FClear.15 mph60%30.26 "Hg10 mi
6:15 AM34 °FClear.16 mph56%30.26 "Hg10 mi
5:55 AM34 °FClear.15 mph51%30.26 "Hg10 mi
5:35 AM34 °FClear.14 mph51%30.25 "Hg10 mi
5:15 AM36 °FClear.12 mph52%30.25 "Hg10 mi
4:55 AM36 °FClear.10 mph48%30.25 "Hg10 mi
4:35 AM37 °FClear.9 mph45%30.24 "Hg10 mi
4:15 AM37 °FClear.9 mph45%30.24 "Hg10 mi
3:55 AM37 °FClear.9 mph45%30.25 "Hg10 mi
3:35 AM34 °FClear.9 mph51%30.24 "Hg10 mi
3:15 AM36 °FClear.No wind48%30.23 "Hg10 mi
2:55 AM37 °FClear.No wind45%30.23 "Hg10 mi
2:35 AM39 °FClear.3 mph42%30.22 "Hg10 mi
2:15 AM39 °FClear.5 mph42%30.22 "Hg10 mi
1:55 AM43 °FClear.6 mph39%30.22 "Hg10 mi
1:35 AM37 °FClear.7 mph45%30.22 "Hg10 mi
1:15 AM37 °FClear.8 mph45%30.22 "Hg10 mi
12:55 AM39 °FClear.9 mph42%30.22 "Hg10 mi
12:35 AM41 °FClear.7 mph39%30.22 "Hg10 mi
12:15 AM41 °FClear.9 mph39%30.22 "Hg10 mi
11:35 PM
Thu, Feb 11
43 °FClear.10 mph39%30.22 "Hg10 mi
10:55 PM39 °FClear.12 mph42%30.22 "Hg10 mi
10:35 PM41 °FClear.6 mph39%30.21 "Hg10 mi
10:15 PM39 °FClear.7 mph42%30.21 "Hg10 mi
9:55 PM43 °FClear.7 mph36%30.21 "Hg10 mi
9:35 PM45 °FClear.5 mph34%30.21 "Hg10 mi
8:55 PM46 °FClear.3 mph32%30.21 "Hg10 mi
8:35 PM46 °FClear.3 mph34%30.21 "Hg10 mi
7:55 PM48 °FClear.5 mph27%30.21 "Hg10 mi
7:35 PM50 °FClear.5 mph28%30.20 "Hg5 mi
7:15 PM52 °FClear.3 mph26%30.20 "Hg10 mi
6:55 PM54 °FClear.6 mph24%30.20 "Hg10 mi
6:35 PM55 °FClear.8 mph26%30.19 "Hg10 mi
6:15 PM59 °FSunny.7 mph23%30.19 "Hg10 mi
5:55 PM63 °FSunny.6 mph20%30.19 "Hg10 mi
5:35 PM64 °FSunny.5 mph18%30.19 "Hg10 mi
4:55 PM66 °FSunny.6 mph15%30.19 "Hg10 mi
3:55 PM66 °FSunny.3 mph17%30.17 "Hg10 mi
3:35 PM66 °FSunny.3 mph17%30.18 "Hg10 mi
3:15 PM66 °FSunny.No wind17%30.18 "Hg10 mi
Weather by CustomWeather, © 2016

See weather overviewHow to use our weather pages